Theta_e
319 320 313 308 310 312 314 315 317 319 321 322 320 320 328 333 329 324 320 320 320 321 328 333 330 327 324 319 316 318 321 317 314 316 316 316 317 318 318 317 318 319 318 320 324 323 320 318 318 317 316 315 314 315 317 317 317 320 321 319 322 332 333 329 333 336 332 328 327 325 321 321 323 321 321 324 326 330 331 333 342 346 345 348 349 347 349
320 320 313 308 310 312 314 315 317 319 322 321 321 327 335 331 328 331 324 317 318 323 326 328 333 339 332 319 316 316 315 315 314 313 316 317 316 318 317 316 318 318 319 323 322 319 317 316 316 316 316 316 317 318 319 320 322 323 324 323 322 324 327 329 327 324 321 322 324 324 326 327 324 320 321 327 337 340 336 341 351 349 344 346 344 345 350
320 320 313 308 310 312 314 315 317 320 322 321 321 327 331 327 327 333 329 318 317 323 324 322 324 333 331 318 316 318 314 314 314 313 315 315 315 317 317 316 319 319 322 325 322 320 319 316 317 319 317 318 319 319 320 320 326 330 330 331 331 328 329 330 330 327 325 323 321 319 322 324 322 321 323 329 342 346 340 341 344 341 341 343 341 347 353
319 319 312 308 310 312 313 316 317 320 322 322 321 321 327 330 328 335 338 328 323 322 319 318 317 323 328 321 315 316 315 314 314 313 314 315 315 318 319 319 321 322 324 326 324 324 322 319 323 323 320 320 317 318 322 319 327 337 332 330 340 339 330 331 336 336 332 331 333 330 326 321 316 318 323 330 342 348 345 341 338 338 342 344 345 349 353
318 318 312 307 310 312 313 316 317 320 322 321 321 321 327 334 329 331 337 332 329 329 322 320 320 320 324 320 313 315 316 315 317 316 316 316 316 319 319 319 320 322 324 325 325 328 327 323 325 323 323 327 323 320 322 318 327 337 327 326 342 341 327 327 331 327 323 327 332 329 325 320 315 316 319 327 341 350 344 336 336 341 341 340 347 350 351
317 318 313 307 309 311 312 315 317 320 321 320 323 326 328 330 326 325 326 324 327 332 328 329 329 323 323 321 315 317 318 317 318 317 318 318 317 321 322 318 317 321 327 329 327 331 330 323 323 324 323 329 329 323 321 319 326 331 323 326 340 338 327 325 325 321 321 322 320 320 321 317 315 319 324 329 338 345 344 340 342 344 337 339 348 351 350
316 318 314 306 308 311 311 315 316 319 321 319 323 328 327 328 330 327 324 325 330 332 328 327 326 325 333 330 317 315 317 316 315 315 321 323 320 323 323 317 316 318 328 338 331 327 327 320 319 322 321 324 326 324 323 321 323 325 322 325 333 336 332 328 326 325 322 320 318 318 320 316 314 320 327 335 342 346 350 350 349 348 345 346 350 349 350
316 317 315 307 307 310 311 313 316 318 320 319 322 325 325 325 328 328 330 334 336 336 331 327 324 324 331 328 317 317 318 317 316 315 319 323 321 322 320 317 317 316 321 330 324 319 324 319 314 318 321 322 323 321 320 319 322 325 322 322 326 329 329 328 332 332 322 320 323 322 321 319 315 316 320 329 340 348 352 352 351 352 351 347 349 351 350
315 316 315 307 306 310 310 312 314 317 319 320 322 323 322 322 321 322 333 340 338 336 332 328 328 324 325 324 323 323 319 316 319 317 316 320 322 323 321 318 320 319 319 320 317 317 322 320 314 316 319 318 317 318 317 316 320 322 320 323 329 332 332 334 339 334 321 318 322 325 326 324 319 317 315 317 329 340 346 349 352 353 351 348 349 351 349
315 316 316 309 305 308 310 311 313 315 318 321 323 323 323 324 324 323 329 336 336 336 332 327 325 320 321 325 326 324 319 317 322 321 317 317 318 321 323 322 321 321 319 317 315 315 319 319 314 313 315 315 316 318 317 317 320 321 320 325 329 333 338 338 332 326 321 319 322 328 332 326 320 318 315 313 326 339 344 347 349 347 347 348 349 349 346
315 315 316 311 305 306 310 310 311 313 316 318 320 322 322 323 327 327 330 331 331 332 332 329 328 322 319 321 321 321 321 322 327 327 321 316 315 318 324 329 325 320 316 315 315 315 315 316 315 314 315 316 316 316 317 319 321 322 324 327 330 336 343 341 333 326 322 324 330 334 332 323 317 318 316 313 323 340 347 347 345 343 343 346 348 346 344
315 315 317 314 306 305 309 310 310 311 313 315 317 320 321 321 323 327 331 331 330 333 333 327 325 321 316 317 320 320 321 321 325 326 320 315 315 315 319 327 327 320 315 317 321 321 317 316 320 322 321 321 320 317 317 320 319 320 324 328 333 339 341 340 336 329 323 328 332 329 325 322 321 322 320 318 324 336 344 342 339 340 342 345 347 344 342
314 314 316 315 309 305 307 310 311 311 312 314 317 320 321 321 323 326 332 335 332 335 335 326 322 323 319 317 319 319 318 319 323 324 320 318 318 316 317 320 320 316 317 324 332 332 322 321 327 327 326 333 333 323 318 320 320 321 324 326 330 334 335 338 336 327 322 326 324 320 321 323 326 326 323 325 329 334 341 343 339 336 339 343 345 342 341
314 314 315 316 312 306 306 309 311 311 311 313 318 322 322 321 324 327 330 333 332 333 332 325 325 332 328 321 320 319 318 319 320 319 319 318 317 316 317 317 315 315 318 327 337 332 325 330 336 328 327 337 333 321 318 319 320 323 325 325 329 333 333 336 333 327 327 327 323 326 325 319 322 326 321 321 321 321 331 342 341 335 336 340 341 341 341
314 314 314 316 314 308 305 309 311 311 311 313 318 323 323 321 324 324 324 330 337 336 331 324 326 332 329 324 324 323 321 321 321 320 324 325 320 315 315 313 311 314 319 326 335 333 329 334 336 326 325 329 323 317 321 321 319 323 324 323 326 327 326 330 330 329 333 332 325 326 324 319 323 326 324 322 319 315 322 336 342 339 337 338 338 339 339
313 314 314 315 315 310 305 307 311 310 312 315 320 324 323 321 323 323 323 329 335 332 326 321 323 327 326 321 322 326 327 326 324 325 329 330 323 316 315 313 312 319 331 337 338 339 336 334 332 327 326 326 319 317 321 322 321 325 327 329 331 327 327 334 335 330 332 332 326 324 323 324 330 330 327 325 320 318 324 336 345 344 337 336 338 337 337
312 314 314 314 316 312 305 306 310 311 312 316 321 324 322 321 321 321 324 329 330 329 329 325 323 329 330 324 322 326 330 329 328 327 326 324 321 319 320 321 320 321 331 339 341 341 338 330 329 329 327 324 321 318 320 323 323 324 327 333 335 334 334 335 332 331 335 332 327 328 328 327 330 332 329 324 319 323 335 344 347 342 334 335 337 335 336
312 314 314 314 316 313 306 305 309 311 311 315 321 323 322 321 321 320 324 330 329 326 326 321 320 326 327 323 323 323 321 324 330 331 327 323 322 321 319 323 322 316 324 339 343 338 332 326 325 329 326 321 320 319 321 323 320 318 321 325 329 332 334 331 326 327 333 328 320 323 328 327 327 329 328 324 321 327 340 346 343 336 333 336 336 335 335
312 314 314 314 316 314 308 304 307 311 311 313 318 322 322 322 320 318 322 328 327 323 321 318 319 322 319 318 323 322 319 325 334 335 330 323 321 321 319 319 320 320 329 344 341 329 327 325 324 327 329 325 323 321 319 318 317 317 319 321 325 327 326 326 322 316 320 325 325 327 327 325 325 327 325 323 321 324 333 335 331 332 335 336 335 334 335
312 313 314 314 316 315 310 305 306 310 311 311 315 318 320 321 321 318 319 324 327 328 326 320 318 321 319 318 323 325 325 330 334 337 338 330 323 325 325 321 322 325 332 340 334 324 326 329 325 324 327 328 325 319 317 319 318 317 318 318 321 322 321 324 321 313 315 326 330 328 324 322 323 326 324 322 321 322 327 328 326 329 335 335 332 331 330
311 313 314 315 315 315 312 306 305 309 311 311 312 314 316 319 320 318 318 321 323 323 321 318 317 321 322 319 321 323 325 329 331 332 336 330 321 325 333 331 329 328 329 334 331 323 325 330 328 325 325 325 322 319 321 328 323 317 316 317 319 321 323 327 326 320 319 324 324 322 322 323 323 323 321 322 323 323 327 330 327 326 329 331 331 328 325
311 312 314 315 315 317 314 307 305 307 310 311 312 312 315 318 317 318 319 319 319 319 319 319 320 321 321 319 319 320 320 322 324 325 330 329 323 324 333 337 334 328 326 330 329 324 325 328 327 327 326 324 325 323 320 325 326 321 318 317 317 319 322 326 327 325 323 323 322 323 324 322 321 321 322 323 324 323 325 328 329 326 325 327 329 328 325
310 312 314 315 315 317 315 308 305 306 308 311 312 312 316 318 317 318 320 320 321 321 318 319 321 321 321 320 318 318 319 319 319 318 324 331 328 324 326 329 328 325 327 331 330 330 333 330 326 328 327 323 327 327 320 320 327 327 321 319 319 319 319 321 322 323 324 322 321 323 325 322 320 320 320 319 321 322 322 324 326 325 324 324 326 325 323
310 311 314 315 315 317 316 310 306 306 307 310 311 311 315 318 318 318 318 319 323 324 318 320 327 326 322 320 318 317 319 319 317 316 318 324 330 329 326 323 324 328 330 327 325 329 333 327 323 329 329 323 325 330 326 324 326 324 322 326 327 324 324 323 322 323 326 326 324 324 324 321 319 320 322 320 320 320 321 322 321 320 320 321 322 322 321
310 311 314 315 315 316 316 311 307 306 307 310 311 311 315 318 319 319 318 317 323 329 328 327 327 322 318 319 319 317 318 317 316 317 317 318 324 330 327 320 321 326 325 322 326 335 335 326 325 331 330 322 322 325 325 325 324 321 323 329 327 323 324 324 323 324 323 321 323 325 324 321 319 320 322 322 321 322 322 321 319 317 316 317 318 320 321
310 311 313 315 315 316 317 313 308 306 307 310 311 312 316 320 319 318 318 317 320 328 331 331 328 321 318 320 320 318 318 317 316 318 319 318 320 324 323 319 319 322 321 323 332 339 335 329 330 334 330 322 323 326 325 324 323 320 322 325 324 322 322 321 323 328 326 321 323 328 328 324 322 321 321 320 321 324 326 324 321 319 318 317 316 317 319
310 311 313 315 315 316 317 314 308 306 307 310 311 312 317 321 319 318 320 319 318 322 328 332 331 323 317 320 321 318 316 316 316 318 319 320 321 320 318 320 326 330 330 330 331 333 336 333 330 331 328 323 322 324 323 321 322 324 326 327 325 326 327 324 325 330 330 327 326 326 328 329 325 321 322 321 320 323 327 326 324 323 323 321 318 316 316
310 311 313 314 315 316 317 314 309 307 307 310 313 315 318 320 319 319 320 319 319 322 326 329 327 321 318 320 321 319 317 315 316 319 319 319 320 318 316 320 331 339 337 332 328 330 336 332 325 325 326 324 324 324 322 321 324 327 328 326 325 325 327 327 329 329 327 325 325 325 326 329 325 320 322 323 321 321 322 322 321 321 319 318 319 319 317
310 311 313 314 314 316 317 314 309 307 308 312 317 319 319 319 319 319 320 319 320 323 325 328 327 324 322 322 321 320 320 317 315 318 319 318 319 319 316 321 331 335 333 331 331 333 334 329 325 324 323 322 324 326 324 324 326 326 325 324 323 323 323 324 328 329 324 324 327 327 325 325 324 322 322 321 320 322 324 323 322 321 317 314 316 317 317
310 311 313 314 314 316 316 313 309 307 309 315 319 322 324 322 319 318 319 320 320 321 326 332 331 323 319 321 323 323 322 320 319 320 320 320 321 319 318 323 328 328 330 335 333 331 331 330 328 326 322 321 326 330 328 326 328 327 325 324 324 326 324 322 323 325 323 325 328 326 325 326 324 321 321 319 317 321 326 325 322 321 318 315 315 314 314
310 312 314 314 315 316 315 312 308 308 310 315 320 327 332 329 322 317 316 318 319 321 326 331 329 323 322 324 323 322 322 322 322 323 321 321 322 319 320 325 326 326 333 340 333 325 325 328 329 328 325 324 328 330 327 326 329 328 325 323 323 325 326 325 324 323 324 325 325 324 325 326 323 321 324 323 318 318 321 321 318 318 319 317 315 315 314
311 312 313 314 316 316 313 309 308 310 312 314 318 323 325 323 320 316 314 316 320 322 325 328 326 325 327 326 321 320 322 321 321 324 325 324 323 322 322 325 326 326 329 333 330 324 323 326 328 327 324 324 327 328 326 327 331 329 323 322 323 323 324 327 326 324 324 323 322 324 327 328 325 323 324 322 317 316 319 319 317 317 318 317 316 316 316
311 312 313 315 315 313 310 309 310 311 312 313 315 316 316 316 316 314 314 318 320 320 323 328 328 324 324 323 320 319 321 321 323 328 329 324 322 325 327 326 326 326 323 324 327 324 322 326 330 327 322 322 326 329 329 330 330 327 323 322 323 323 324 325 324 324 324 321 319 321 324 324 322 319 316 315 315 316 317 318 317 318 319 319 319 318 316
311 312 314 315 313 310 309 312 313 313 314 315 316 316 316 316 315 314 315 318 321 320 321 328 333 331 327 326 324 323 323 325 327 330 329 323 320 326 329 328 328 327 322 321 323 323 322 326 330 326 322 322 323 327 331 331 328 325 324 324 322 322 323 323 322 323 324 321 320 319 316 314 316 317 317 318 318 314 315 317 318 319 322 323 321 319 317
312 314 315 314 311 310 312 315 316 317 319 319 318 318 317 316 315 317 318 318 321 325 326 326 329 332 331 329 328 325 324 325 326 327 327 323 320 323 328 328 328 327 322 319 322 324 324 325 325 324 322 322 324 328 332 332 328 325 325 326 324 321 321 320 320 321 321 321 322 320 314 313 318 320 321 323 319 313 314 317 317 318 323 325 322 318 316
314 314 313 311 310 312 315 316 318 320 321 321 319 318 317 316 316 317 318 318 322 328 331 327 326 329 331 331 329 324 321 323 325 325 327 325 321 323 328 329 326 323 320 321 324 324 321 320 322 322 321 323 329 333 332 332 332 328 326 325 324 320 319 319 320 321 320 319 321 321 318 319 321 320 319 321 318 313 315 318 317 318 322 324 323 320 316
314 313 311 310 313 316 318 317 317 320 321 320 318 316 316 318 318 318 319 320 320 322 325 329 329 328 328 331 330 325 323 324 325 326 328 328 325 326 331 332 327 322 321 325 326 324 321 321 323 325 325 325 328 327 323 322 326 327 325 323 320 317 318 318 318 318 318 317 319 322 320 319 320 319 319 321 319 316 316 316 316 317 319 320 321 319 316
312 311 311 313 318 323 324 321 318 319 319 316 316 318 319 321 323 325 325 324 323 321 322 327 329 325 324 326 325 323 322 324 324 325 327 326 323 324 328 328 324 321 322 324 322 321 322 322 320 322 326 325 323 320 317 315 315 317 319 319 316 316 318 317 314 313 314 316 318 319 317 316 317 318 318 318 317 315 313 311 310 311 312 313 314 314 314
310 311 314 317 321 324 324 320 317 317 317 315 317 322 323 322 326 329 327 324 324 323 321 325 328 327 326 328 325 321 321 325 327 327 326 323 321 321 324 323 320 319 322 322 318 319 325 325 319 320 326 327 324 322 319 315 314 315 315 314 312 312 314 314 312 311 312 313 314 313 311 311 313 315 316 316 316 313 310 308 308 309 310 310 310 312 313
311 313 317 320 321 319 318 317 316 317 320 320 321 323 324 324 326 329 327 326 329 327 324 325 327 325 325 329 328 322 320 324 329 331 329 324 320 320 321 321 320 321 324 324 321 321 325 325 320 320 326 331 329 323 316 314 317 319 315 310 307 308 309 310 310 309 309 309 309 309 308 308 308 310 312 313 314 313 311 308 308 309 308 308 309 311 312
315 316 318 320 319 317 316 316 316 319 322 325 327 327 326 324 325 326 326 328 332 330 326 324 326 325 324 327 329 327 322 321 324 330 330 324 319 319 321 319 318 321 325 326 324 322 323 322 320 322 328 331 326 317 312 314 318 318 312 307 307 308 309 309 308 308 308 307 307 307 307 308 307 308 309 309 309 310 309 308 307 308 308 307 307 309 310
316 315 316 317 317 316 316 317 318 321 324 327 328 327 325 323 324 325 326 327 330 329 326 324 326 329 326 324 326 327 323 319 321 328 329 322 318 321 324 322 319 321 324 324 322 322 323 323 324 327 328 323 316 312 312 316 318 316 312 308 308 309 309 307 307 307 307 307 306 306 307 307 307 307 307 307 307 307 307 307 308 308 307 306 307 307 307
315 315 316 317 318 318 319 319 318 320 324 325 324 323 324 324 325 326 327 327 327 326 324 322 322 323 322 322 324 323 318 317 322 327 325 320 319 322 325 324 322 320 320 320 321 323 324 326 329 330 325 317 313 313 315 316 316 315 311 307 306 308 308 307 306 307 307 307 307 307 306 306 306 306 307 307 306 306 306 307 307 307 307 306 307 307 307
315 315 317 320 320 319 319 319 318 320 323 324 323 322 323 324 325 326 330 331 329 326 327 328 326 324 324 325 325 323 320 319 323 324 322 321 322 323 324 326 324 320 317 319 322 322 321 324 326 325 319 315 313 315 315 315 315 315 312 307 306 307 307 306 306 306 305 306 306 306 306 306 306 306 306 306 305 305 305 305 306 306 306 306 307 307 307
319 320 321 322 321 318 317 318 321 323 326 326 325 326 328 329 331 333 334 333 329 326 327 330 329 327 326 324 322 325 326 323 321 322 322 322 322 322 323 325 324 319 317 320 323 320 319 323 324 319 315 314 315 314 314 314 312 311 310 309 307 306 305 305 305 304 305 305 306 306 306 306 306 306 306 306 306 306 305 305 306 306 306 306 306 307 307
320 323 323 323 321 317 316 318 322 325 326 327 328 330 332 334 337 336 332 328 328 329 329 328 328 329 327 322 320 323 327 325 321 322 323 322 322 322 321 319 318 315 315 319 322 321 322 327 326 318 313 313 313 311 312 311 309 307 309 310 309 306 305 305 305 305 305 305 305 305 305 305 305 305 306 306 307 307 306 306 306 306 306 306 306 307 307
320 321 320 321 319 315 314 318 322 325 326 327 329 332 330 329 331 330 326 325 329 332 329 325 325 326 326 322 319 321 325 325 322 321 320 319 320 320 318 316 316 316 316 317 320 322 325 328 323 315 312 312 312 311 311 311 310 309 310 311 310 307 305 304 305 305 305 306 306 306 306 306 306 306 306 306 306 307 307 307 307 307 306 306 306 306 307
322 319 317 319 320 318 318 321 323 324 326 326 327 328 326 323 326 331 329 325 327 329 329 326 325 324 323 323 322 321 320 321 320 320 319 318 317 316 315 314 315 317 318 319 321 326 330 328 319 311 310 311 312 312 312 312 311 311 311 311 310 308 305 304 304 305 305 306 306 306 306 306 306 306 306 306 306 307 307 308 308 307 306 306 306 306 307
319 316 316 320 321 321 323 322 321 324 330 329 325 325 326 326 330 335 332 326 326 328 328 328 329 326 321 319 319 317 315 316 317 317 316 315 314 315 316 315 314 317 320 321 324 328 329 321 312 309 311 312 312 312 312 312 311 311 309 309 308 306 304 304 305 306 306 306 306 306 306 306 306 306 306 306 306 307 307 307 307 307 307 306 306 306 307
313 314 318 321 319 320 322 321 320 326 334 333 329 328 330 330 332 332 326 325 329 329 323 322 328 327 319 315 316 316 316 317 316 314 314 316 315 314 313 315 318 323 326 326 326 326 321 312 308 310 312 311 311 312 311 310 309 308 307 306 306 305 305 305 306 306 306 306 306 306 306 306 305 305 306 306 306 306 307 307 307 306 306 306 306 306 306
313 314 319 320 319 321 322 321 320 324 328 329 331 331 330 331 335 332 323 322 327 326 321 322 328 324 316 314 316 316 315 315 313 312 315 319 319 316 316 317 321 325 327 325 320 315 311 308 308 311 311 311 312 312 309 307 307 307 306 306 306 305 305 305 305 306 306 307 306 306 305 304 305 306 306 306 306 306 306 306 307 307 307 307 307 307 307
317 318 319 319 319 320 319 319 320 323 323 323 325 326 325 329 335 332 322 320 324 327 326 326 326 323 319 319 319 316 313 312 311 311 313 317 319 319 324 327 326 323 325 324 317 309 307 308 309 309 310 311 311 308 305 305 306 307 307 306 306 305 305 305 305 306 306 306 306 306 305 304 305 307 307 307 306 305 305 305 306 307 307 308 308 308 308
Wind_Speed
28 27 25 25 27 28 29 32 34 35 33 25 17 9 3 3 1 2 6 1 6 5 4 3 3 1 3 2 2 1 1 1 3 5 5 4 2 3 3 1 2 2 1 1 2 3 2 2 2 2 1 1 2 4 7 4 1 3 2 2 1 1 3 2 2 4 4 6 6 4 2 4 5 2 2 4 3 3 5 5 4 4 3 2 3 0 3
28 27 25 25 26 27 28 31 33 33 29 23 15 5 2 1 3 3 7 5 3 3 1 2 2 4 4 4 3 2 2 2 3 4 4 3 1 2 2 1 1 2 2 3 2 1 2 2 2 1 2 0 1 3 7 5 3 3 1 2 1 1 2 2 2 3 4 4 5 5 5 3 2 1 2 1 4 7 5 3 4 3 4 4 4 2 3
28 26 24 25 26 26 26 29 32 31 26 20 12 3 1 1 1 3 7 8 5 3 3 4 2 3 2 3 4 3 2 2 2 2 3 3 1 2 1 2 2 2 3 4 3 3 4 2 2 2 1 2 2 4 7 5 3 2 2 2 1 2 2 2 4 3 3 3 2 1 3 3 1 0 1 1 5 8 6 3 4 2 4 4 5 3 3
27 26 24 25 26 25 25 27 30 29 24 19 11 2 0 2 1 2 6 7 5 2 1 3 2 2 1 2 3 3 2 2 2 2 3 4 4 3 2 3 3 3 5 5 5 6 4 3 2 3 2 3 2 4 5 5 6 6 5 4 2 3 3 2 5 5 4 6 6 4 2 1 1 0 1 1 3 5 6 5 3 4 4 3 3 5 9
27 26 24 25 25 25 24 25 28 27 22 19 12 3 2 2 1 1 2 3 4 3 3 5 2 2 3 3 1 2 2 2 4 3 3 3 4 4 3 5 4 2 3 5 3 5 5 5 4 2 3 3 3 5 4 6 10 9 5 5 3 4 3 3 4 4 4 6 6 6 2 2 1 1 1 1 2 5 7 4 5 7 7 2 5 8 13
27 26 24 24 25 24 23 23 26 25 20 17 11 3 2 2 1 1 1 1 1 1 3 4 4 2 2 4 1 2 4 4 2 2 2 3 4 3 3 7 6 2 1 4 2 4 4 5 3 2 3 3 4 6 4 5 9 7 4 5 3 5 2 4 1 2 1 0 5 5 1 2 2 3 3 1 1 5 6 3 4 7 5 4 9 12 12
26 26 23 24 25 24 23 22 24 23 18 14 10 4 1 2 1 1 1 1 2 2 4 4 3 2 2 3 2 2 4 4 1 2 3 4 5 4 4 6 8 5 3 5 3 2 2 2 3 1 2 3 2 4 4 5 7 7 5 4 3 5 2 4 1 2 5 7 7 7 5 4 5 7 6 5 2 3 6 4 3 4 2 4 13 13 7
25 25 23 23 24 24 23 22 22 22 18 12 9 5 2 2 0 2 3 2 1 2 3 3 2 2 3 3 2 2 3 3 1 2 3 2 4 4 5 2 5 6 6 7 4 1 4 3 1 1 2 2 1 1 1 3 5 7 4 4 3 3 1 4 2 3 6 8 10 9 6 5 7 8 9 8 6 5 5 5 5 6 5 7 13 11 5
24 25 22 22 23 23 22 21 21 21 18 11 6 4 4 2 1 0 2 2 3 1 2 3 4 2 3 3 2 1 1 2 3 3 2 2 1 2 5 4 2 5 8 8 3 3 5 5 3 3 4 2 1 0 1 3 2 6 4 3 4 3 1 3 4 4 3 6 9 10 7 5 7 9 10 8 5 2 1 1 3 5 8 11 11 8 6
22 24 22 20 22 22 22 21 20 20 18 13 5 4 7 4 1 2 3 0 3 3 2 3 3 1 1 2 2 1 2 2 4 4 3 3 2 3 7 6 3 5 7 5 3 5 5 5 4 3 3 3 3 2 2 3 3 2 1 2 3 3 2 2 3 3 3 6 8 7 6 7 5 5 6 5 3 0 0 2 1 7 12 11 6 5 8
20 23 22 20 20 22 21 20 20 19 18 15 7 3 7 5 1 2 3 1 3 2 2 3 2 1 1 1 3 3 3 2 3 5 1 4 2 3 5 6 5 3 2 3 4 4 4 3 1 3 5 6 6 5 6 7 6 2 2 2 2 3 4 1 1 3 2 8 8 5 5 4 2 5 3 4 4 1 2 1 2 4 5 3 3 6 11
19 22 22 19 18 20 20 19 19 18 17 15 8 5 8 6 1 1 4 2 2 3 3 1 1 0 1 2 4 3 4 4 3 6 6 0 2 1 4 6 5 1 3 3 3 2 2 1 3 4 6 7 6 8 10 10 8 5 3 4 2 3 4 1 1 3 1 5 6 5 1 3 5 5 4 3 5 4 6 5 4 3 2 3 9 11 13
18 20 21 19 17 19 19 18 17 16 15 13 9 7 10 8 2 1 3 3 1 2 1 2 2 3 4 5 6 4 4 5 4 5 6 3 0 2 3 3 3 2 2 2 7 6 3 2 4 4 6 7 6 8 9 8 7 7 6 4 3 3 3 2 1 1 1 2 5 2 4 6 5 6 5 3 2 3 6 5 4 6 3 5 12 11 11
16 19 20 19 17 17 18 17 16 14 13 11 8 8 11 9 3 1 2 4 1 2 1 1 4 5 4 4 6 4 3 5 5 4 3 2 2 2 1 1 1 2 2 5 6 5 3 2 4 3 4 6 5 4 5 4 4 6 7 6 3 5 3 2 2 1 2 3 1 2 3 4 5 5 4 2 2 3 2 2 3 5 3 5 12 13 13
15 17 19 19 16 15 17 17 15 14 13 10 6 7 11 11 5 0 2 4 2 1 2 2 1 2 2 2 4 5 4 5 3 2 4 2 1 0 2 2 3 2 4 5 4 3 2 2 3 3 3 3 2 2 3 3 3 3 4 4 4 5 2 3 3 1 2 4 1 3 3 2 3 5 6 3 2 4 3 3 3 5 1 6 12 15 15
13 15 18 19 16 14 16 17 15 14 13 9 5 6 11 13 8 1 2 3 4 1 2 2 4 3 2 2 3 5 4 2 1 2 5 5 3 3 3 3 4 4 6 5 3 3 4 3 3 2 0 1 2 1 2 2 3 4 4 5 7 6 3 3 5 2 2 4 3 2 1 3 5 6 8 6 2 4 4 4 4 5 2 5 10 15 16
11 14 16 18 16 13 14 16 15 13 12 9 5 6 9 13 12 4 1 3 4 0 3 2 3 3 3 3 3 3 3 2 2 3 1 2 3 4 4 5 5 5 6 4 3 4 4 3 2 2 1 2 2 1 1 1 2 5 6 7 7 6 5 4 5 2 2 4 3 3 2 2 4 6 8 7 3 1 5 3 5 5 4 5 8 13 14
11 13 15 17 16 13 13 15 15 13 11 8 5 4 7 12 13 8 1 2 4 1 4 1 4 3 2 4 3 2 2 2 3 3 1 1 1 2 3 3 3 4 4 4 3 3 4 2 1 2 1 2 1 2 1 1 1 3 3 3 4 4 3 3 4 2 2 3 2 1 1 2 4 7 8 7 4 4 4 3 6 3 4 5 7 10 11
10 13 14 16 15 12 11 14 15 13 11 8 5 3 5 10 13 10 4 2 3 1 4 3 3 2 1 3 3 1 1 2 3 4 2 1 1 1 2 2 1 2 3 4 3 2 3 1 0 3 2 2 2 2 1 1 1 1 1 2 2 2 2 2 2 2 2 2 2 1 2 2 3 7 8 4 1 1 3 5 4 3 5 6 7 8 8
10 12 13 15 14 11 10 12 14 13 11 9 7 4 3 8 13 12 5 1 2 1 4 3 2 1 2 2 4 3 3 3 2 4 4 2 1 2 4 3 2 2 3 3 2 1 2 1 1 1 2 1 1 2 1 1 1 2 1 0 0 1 1 1 1 1 1 2 3 2 1 2 4 7 5 3 1 3 4 2 3 2 5 8 7 6 8
10 11 11 13 14 11 9 10 13 13 11 10 8 5 3 6 12 12 5 1 3 2 2 3 3 4 4 2 2 3 4 4 2 4 4 1 1 3 3 3 1 1 1 2 2 1 1 2 1 0 1 0 0 1 1 1 2 2 2 2 0 1 2 0 2 2 2 2 1 1 3 4 5 5 2 1 3 4 3 2 1 2 2 6 6 5 5
10 11 11 12 13 11 8 8 11 13 12 10 8 5 4 5 10 10 5 1 3 2 3 5 6 6 3 3 3 2 1 2 2 4 5 2 2 1 3 3 2 2 2 2 2 1 1 2 1 1 2 1 1 1 1 2 0 3 1 2 1 2 3 2 1 1 2 2 4 4 4 4 4 2 2 4 5 4 2 3 3 2 1 2 6 6 6
10 11 12 11 12 11 8 7 9 11 12 10 8 6 5 8 11 9 2 1 1 3 5 6 5 4 3 5 5 3 1 2 3 2 4 4 2 1 1 2 2 1 1 2 3 3 2 2 2 2 2 1 2 2 1 1 1 2 1 1 1 3 2 3 1 1 0 1 2 2 3 5 6 5 3 4 5 5 3 2 1 2 1 2 5 8 8
10 11 12 11 11 10 8 6 8 10 11 11 8 6 6 8 12 10 3 1 2 1 2 3 3 1 3 4 4 5 4 3 3 3 1 3 3 1 1 1 2 2 1 2 3 3 3 2 2 3 2 1 2 3 2 0 0 1 0 1 3 3 2 3 2 2 2 1 3 4 4 5 8 8 7 8 8 7 5 5 3 1 2 5 6 7 8
10 11 12 10 10 10 8 6 7 9 11 10 7 6 4 6 10 10 4 2 2 3 2 2 2 3 3 2 3 5 4 3 3 3 3 2 3 5 4 3 2 4 3 3 2 4 3 2 2 3 2 2 1 1 1 1 1 1 1 1 3 2 2 2 2 2 1 2 5 5 2 2 6 7 7 8 8 8 7 7 5 5 4 6 8 9 8
10 11 12 10 9 10 8 6 6 8 9 9 7 4 3 5 8 8 5 2 1 3 3 1 3 5 9 7 5 4 1 2 3 4 5 4 7 12 12 7 4 5 5 3 4 4 3 3 3 2 2 2 2 2 2 2 1 2 1 1 2 1 2 1 1 2 2 2 3 4 3 3 7 8 7 6 6 6 8 9 8 8 8 6 6 8 9
10 11 11 10 9 10 8 6 6 7 8 8 6 2 1 3 6 7 6 4 2 1 2 1 3 5 7 8 10 6 3 4 3 7 10 10 12 16 15 10 5 5 5 4 3 3 3 3 2 2 2 1 2 2 1 1 2 3 0 3 2 2 2 1 2 3 2 3 2 1 1 1 3 5 6 6 6 7 9 10 10 10 8 7 6 5 4
11 11 11 10 10 10 8 5 6 7 8 7 3 1 2 2 4 6 7 6 3 2 3 2 3 4 3 6 13 10 4 6 7 9 10 9 10 13 12 9 5 3 4 4 2 2 3 3 2 1 1 1 1 1 0 1 2 2 1 3 2 2 1 1 3 2 2 4 4 2 3 2 3 4 4 4 5 8 10 9 8 9 9 8 8 7 5
11 11 11 11 10 10 7 5 5 7 7 3 1 3 2 0 2 4 5 6 3 2 2 1 2 3 1 4 10 13 9 8 10 11 11 11 11 11 11 8 5 3 3 4 3 3 2 1 2 1 0 1 1 0 1 2 2 1 3 4 3 1 1 1 3 3 1 3 4 4 2 1 3 4 3 2 4 8 7 7 7 8 10 11 10 9 7
10 10 11 11 11 9 7 5 5 7 5 0 3 2 2 1 1 1 3 4 3 1 2 3 1 1 2 3 6 11 12 13 15 15 14 13 11 9 8 7 4 3 3 3 3 3 1 0 0 1 2 1 3 1 1 2 1 3 3 3 4 3 2 1 2 1 1 1 3 4 3 3 3 3 4 3 2 5 5 4 4 6 9 11 11 11 12
10 9 10 11 10 8 5 4 5 6 3 2 3 2 2 0 1 2 1 3 2 1 3 3 1 1 2 1 3 7 9 10 13 13 11 9 8 8 8 6 3 3 3 2 2 2 2 1 1 1 2 3 4 3 2 3 1 3 2 2 3 3 3 3 3 2 2 1 1 1 1 3 2 2 2 4 4 3 2 2 3 4 7 8 8 8 10
10 9 10 9 8 6 4 4 5 4 1 4 3 1 1 2 1 1 1 1 2 1 3 3 1 1 1 1 3 5 6 6 6 6 6 5 4 6 8 6 3 2 3 3 2 1 1 1 1 1 1 2 3 2 2 3 3 4 3 2 3 4 3 3 3 2 2 1 1 3 4 4 3 3 3 4 4 3 3 3 3 4 5 7 8 8 7
10 9 8 7 5 3 3 4 4 2 2 4 3 2 1 0 0 1 1 1 2 2 3 3 2 1 1 1 2 5 5 3 3 4 4 4 3 3 4 4 3 3 4 3 1 0 0 1 2 1 1 1 3 3 1 1 4 5 4 3 3 3 3 3 1 2 3 3 2 0 2 4 4 5 6 5 4 3 4 5 7 7 6 6 7 8 9
9 8 6 4 3 2 2 2 1 2 3 3 3 3 2 2 1 2 2 2 2 3 3 3 3 0 1 1 1 3 2 2 1 1 2 3 3 2 2 3 3 3 3 2 1 1 1 1 2 1 1 2 3 3 1 4 5 4 3 3 4 3 3 3 3 3 3 3 2 0 3 5 5 5 6 6 6 7 6 5 5 5 4 4 4 5 6
8 5 4 3 2 1 0 1 3 4 3 3 4 4 3 3 2 2 1 1 2 2 1 1 3 2 1 2 1 3 2 3 2 1 1 1 3 2 2 1 3 2 1 1 1 1 1 0 2 2 0 2 2 0 3 5 5 4 3 3 3 1 1 2 2 3 3 3 2 3 3 2 3 3 4 5 6 7 6 5 4 3 2 3 4 5 4
5 4 3 2 1 2 2 3 3 2 2 3 4 3 3 3 3 3 3 2 3 2 1 1 2 2 3 3 2 2 1 2 1 2 1 1 2 2 2 3 2 0 1 2 2 1 1 1 1 1 1 0 1 4 5 5 5 4 4 4 4 2 1 2 2 2 3 4 4 4 5 5 4 3 3 4 5 5 4 4 4 3 3 4 4 4 4
4 4 3 2 3 2 1 1 2 3 4 5 5 3 3 3 2 3 3 3 4 3 2 3 1 2 3 2 2 1 1 2 0 2 2 1 0 1 2 3 1 1 1 3 1 1 0 2 2 2 1 3 4 5 4 5 6 5 4 3 3 2 2 2 1 1 3 6 5 4 4 4 3 3 3 4 4 4 4 4 3 3 3 5 5 5 5
5 4 3 3 3 2 1 1 3 5 5 5 4 3 2 1 2 2 2 2 3 3 2 3 1 2 2 2 1 1 1 1 1 2 1 1 0 1 1 2 1 1 1 1 2 2 1 3 2 1 3 4 3 4 5 5 5 4 4 3 3 2 2 2 2 3 3 4 4 4 4 5 5 4 3 3 4 4 3 4 5 5 5 6 6 6 6
6 4 3 2 2 1 1 4 6 6 4 3 2 1 1 2 2 1 2 2 2 2 1 1 2 2 3 2 1 2 1 3 3 2 0 1 0 0 1 1 0 1 1 1 2 1 1 1 1 1 3 4 4 4 5 5 4 4 3 4 4 4 3 3 3 2 2 3 4 5 4 4 5 5 4 3 4 5 5 6 7 7 7 7 6 6 6
5 3 2 1 1 3 5 7 7 5 2 1 1 1 1 1 1 1 0 2 2 1 1 1 2 2 3 4 2 2 1 2 2 2 2 1 1 1 2 1 0 1 1 2 2 1 2 0 0 1 2 4 4 4 4 5 5 5 3 3 4 4 3 3 4 4 4 6 7 8 8 8 8 6 5 5 5 5 6 7 8 9 8 7 6 6 6
4 2 1 2 4 5 7 6 4 2 1 2 2 2 1 0 1 0 2 2 1 3 2 2 2 1 1 2 3 2 1 1 2 3 2 1 0 1 2 0 1 1 0 3 2 2 3 1 0 2 4 5 4 3 3 4 4 3 2 1 2 2 2 4 6 6 5 5 7 8 10 10 10 10 10 9 8 8 8 10 12 12 11 9 8 8 8
3 3 4 6 7 6 5 3 2 1 1 2 1 1 0 1 1 0 1 1 2 2 1 2 2 3 3 3 3 2 1 1 1 2 2 1 0 1 2 0 1 1 2 3 0 3 2 0 2 4 5 4 3 3 4 4 4 3 1 1 1 1 2 3 5 6 6 6 7 9 10 11 11 12 13 13 12 12 13 14 14 15 15 13 11 10 10
4 5 5 5 4 3 2 2 1 1 1 2 1 0 1 1 1 0 1 2 1 1 1 1 1 1 1 2 2 1 0 1 1 2 2 1 0 1 2 1 1 1 2 1 2 3 1 2 3 5 5 3 3 3 3 3 3 2 1 1 1 0 2 3 5 7 8 8 10 12 12 12 13 14 14 14 13 13 14 15 17 18 17 16 14 14 13
4 3 2 2 2 2 1 1 0 1 0 0 1 2 1 2 1 1 1 2 2 2 2 2 3 3 2 1 1 1 0 0 1 2 1 0 1 2 2 1 2 2 1 1 1 1 2 4 4 4 3 2 3 3 3 3 3 3 1 0 0 1 3 5 6 7 8 9 11 12 13 13 15 15 15 15 14 13 14 16 17 18 18 18 17 17 16
1 1 2 2 2 1 1 0 1 0 1 2 2 3 3 3 3 3 3 2 2 2 2 3 4 4 2 1 1 1 1 1 1 1 1 1 1 1 1 2 2 1 1 0 0 1 2 4 4 4 4 4 4 4 4 4 4 3 2 0 1 3 4 5 5 6 7 9 11 12 12 13 14 14 15 16 16 16 16 17 17 18 18 18 17 17 16
1 1 3 3 0 1 1 1 1 0 2 3 3 4 4 4 4 4 3 2 2 3 3 4 4 4 2 1 0 0 1 2 1 1 1 2 1 2 2 1 1 1 1 1 2 2 4 5 5 4 5 6 5 5 4 4 3 3 3 2 3 4 4 4 5 6 8 10 11 11 12 13 14 14 15 17 18 18 18 19 19 19 18 17 17 17 16
0 1 2 2 0 1 0 2 3 3 3 3 3 4 4 3 3 3 3 2 3 4 3 3 3 3 2 1 1 0 0 1 1 1 0 2 1 1 1 1 1 1 2 3 4 5 5 5 4 4 6 5 5 5 4 3 3 4 3 1 2 3 5 6 7 8 10 11 12 11 12 12 13 14 15 16 18 20 20 20 20 20 20 19 19 19 19
1 0 1 1 1 1 2 2 2 2 2 3 3 3 2 2 1 3 3 2 3 4 4 4 3 2 0 1 1 1 0 1 1 1 0 1 1 1 1 0 2 2 2 4 5 5 4 4 4 5 6 5 5 5 4 4 4 3 2 0 2 4 6 6 8 9 11 11 11 11 12 13 13 14 14 14 16 19 21 20 20 20 20 20 19 19 20
2 1 1 1 1 2 3 2 1 3 4 3 2 1 1 2 2 4 3 1 2 3 4 3 3 3 1 1 1 1 1 1 1 1 0 1 1 1 1 1 2 3 3 4 5 4 4 3 4 6 6 5 5 5 4 4 4 3 1 1 3 5 6 7 8 10 11 11 11 11 12 12 12 13 14 13 15 18 19 19 18 18 19 19 19 19 20
2 1 1 1 1 2 2 0 1 2 4 4 2 1 1 1 3 4 2 3 3 2 2 2 2 2 1 1 2 1 2 2 2 2 1 2 2 2 1 2 4 4 4 4 4 3 3 3 5 6 5 5 5 5 4 4 4 2 1 3 5 6 7 8 9 9 10 10 11 11 12 12 12 13 14 14 15 16 17 16 15 15 16 17 17 17 18
1 0 1 1 2 3 2 1 1 2 3 3 2 2 1 1 3 4 3 4 4 3 2 1 1 2 2 1 1 1 2 1 2 2 2 3 3 3 2 4 5 5 4 4 4 3 4 4 5 6 6 5 5 5 5 5 4 2 1 3 5 6 6 7 8 9 9 10 10 11 11 11 12 13 13 13 12 11 11 12 12 12 13 14 16 16 17
0 0 2 2 2 3 3 1 1 3 4 3 3 3 2 2 4 3 2 4 4 3 2 2 2 3 2 2 2 2 1 0 1 1 2 3 2 3 5 5 5 4 4 3 2 3 4 4 5 6 6 6 6 6 6 6 5 2 1 2 4 5 6 6 7 7 8 10 10 10 10 11 11 12 10 8 6 5 7 9 10 9 9 11 13 14 15
Wind_Direction
354 355 358 0 3 2 358 357 356 354 356 359 358 358 27 80 224 292 14 46 180 84 27 298 13 334 247 281 277 273 38 17 350 3 20 32 37 36 27 33 61 64 99 79 57 74 76 51 74 164 191 121 223 305 336 326 185 86 27 297 254 113 71 52 305 301 310 308 324 1 34 91 91 60 73 121 145 134 137 166 161 133 153 137 85 40 266
353 355 358 1 3 3 359 359 358 356 358 359 358 7 107 110 244 275 9 26 143 103 40 263 328 298 298 355 338 323 47 48 23 20 12 3 44 66 21 345 46 44 61 80 66 51 93 76 25 108 135 47 309 351 359 1 42 52 329 266 274 43 49 68 55 11 359 353 356 358 355 25 77 332 341 90 117 105 108 108 80 111 184 150 130 208 245
354 355 359 2 3 3 1 360 359 358 358 359 4 26 138 14 240 267 343 17 62 118 175 161 193 281 343 16 337 345 32 25 28 55 33 4 47 101 4 350 54 35 38 56 33 31 89 96 0 38 90 293 313 12 7 14 39 352 291 289 357 77 78 95 115 126 155 164 179 264 308 321 313 309 333 125 124 120 126 113 86 144 188 144 142 189 181
355 356 358 2 3 3 2 1 360 359 357 358 3 16 53 35 96 299 331 6 47 83 168 94 115 232 107 56 346 29 57 328 334 79 72 20 29 60 7 351 48 40 43 56 22 8 36 75 60 45 355 290 292 349 356 19 14 344 345 10 48 102 73 90 130 138 173 192 219 248 249 250 259 199 75 120 135 117 109 112 143 173 159 158 204 170 152
355 357 358 2 4 3 2 2 1 359 357 356 357 10 73 60 90 17 338 341 20 16 7 41 41 226 133 105 331 17 52 344 341 22 62 30 33 60 22 12 40 37 55 78 35 353 8 32 40 9 311 282 289 323 351 13 358 346 354 8 52 98 28 355 112 130 174 200 244 272 248 187 222 2 44 122 141 109 107 143 189 155 136 197 222 168 157
356 356 358 2 4 3 3 4 3 2 359 357 4 25 57 51 138 166 137 205 13 10 335 356 346 307 100 104 64 27 53 52 18 341 11 21 27 70 37 5 4 339 117 111 68 348 13 22 0 322 332 335 333 343 352 356 357 4 9 359 63 106 20 323 43 80 87 37 307 316 67 118 57 43 35 1 195 139 130 164 182 146 151 206 184 167 167
356 356 357 2 5 3 3 5 5 6 3 4 26 48 350 36 64 289 29 134 196 221 302 331 350 342 51 79 61 71 77 70 49 305 20 17 2 60 75 354 349 2 66 108 99 23 67 41 331 297 359 356 5 14 349 327 352 20 28 6 66 106 5 313 316 20 18 13 356 6 42 58 49 40 31 24 36 126 120 111 97 93 88 161 153 151 153
356 356 357 1 5 4 3 6 8 11 11 15 43 58 8 41 40 303 15 15 275 249 324 5 61 21 30 71 65 76 90 85 66 11 56 61 346 39 90 40 6 31 50 78 93 173 166 142 329 170 102 21 33 68 292 284 341 9 25 359 13 83 9 309 5 40 358 357 2 3 15 58 66 44 26 29 43 59 83 108 105 77 70 118 131 131 128
357 356 356 359 5 6 4 5 9 15 20 27 50 44 10 354 235 131 76 7 340 3 357 45 91 35 20 116 138 82 123 135 105 51 50 119 98 101 139 141 42 34 44 57 44 270 201 187 250 223 163 130 121 120 206 195 352 3 15 359 1 56 48 333 40 54 329 344 3 349 348 44 55 31 14 9 16 45 83 159 149 128 123 125 129 140 159
357 356 355 357 4 7 5 5 8 14 24 36 49 12 2 359 302 44 87 352 349 17 353 29 92 126 267 172 149 139 210 199 100 83 13 20 72 155 161 143 83 38 37 31 315 274 226 214 251 234 163 113 89 84 88 110 95 50 55 33 15 75 85 15 58 74 301 326 350 341 0 37 18 346 349 337 316 270 133 331 46 139 139 140 158 174 155
356 356 355 355 2 8 6 6 7 12 22 33 40 1 4 11 297 11 60 72 334 13 35 23 71 131 252 159 104 94 129 107 97 125 108 348 13 119 131 118 98 76 27 293 274 249 212 198 94 90 87 68 64 67 62 57 49 56 116 82 27 75 92 83 74 104 278 310 334 4 36 43 283 272 269 246 246 182 120 74 95 137 149 151 141 134 139
353 354 353 353 360 7 7 6 8 10 18 23 25 16 6 359 291 46 80 109 314 7 61 9 257 162 1 90 93 82 106 105 113 134 130 231 293 70 79 87 89 85 270 298 347 85 134 67 34 34 33 40 45 48 51 44 18 2 72 105 93 60 79 90 23 95 154 320 7 51 51 252 251 283 304 231 203 147 106 82 56 20 338 129 125 131 142
350 352 352 351 356 4 6 6 6 7 11 12 15 22 10 1 10 82 98 110 349 347 46 318 324 46 42 68 87 82 91 88 77 100 112 133 203 22 32 97 122 236 240 41 44 67 90 2 2 2 356 6 18 28 33 29 11 8 20 52 99 101 103 118 49 53 126 40 41 92 235 264 290 321 349 24 40 60 72 59 9 342 327 142 132 132 134
347 348 351 350 352 0 4 4 3 3 7 7 13 29 19 11 24 85 103 99 73 266 182 12 357 17 23 51 81 81 52 50 56 64 71 114 112 63 13 168 249 273 139 84 45 53 90 29 22 14 351 3 14 8 1 3 28 41 17 3 62 109 124 107 60 27 134 111 30 294 301 328 336 338 349 26 350 337 77 118 294 314 311 151 137 132 132
344 345 350 349 348 356 2 2 1 1 3 7 22 37 23 13 15 199 153 111 104 316 52 95 283 314 340 30 93 98 59 35 45 24 347 343 77 14 268 277 320 351 90 86 53 54 82 76 63 34 357 20 32 323 325 337 352 51 47 22 50 74 94 133 118 60 90 105 68 342 359 320 272 278 287 278 245 231 166 130 306 309 322 145 142 138 138
341 341 348 348 346 352 360 1 0 0 3 11 36 41 21 14 16 7 184 108 97 16 319 240 207 177 114 81 100 115 114 99 92 25 349 343 345 315 280 301 345 42 76 67 63 75 64 73 115 128 231 197 186 270 341 2 325 323 5 33 40 37 34 93 99 55 71 116 147 188 201 244 248 262 284 302 280 217 151 78 320 277 190 146 147 145 144
339 338 344 346 343 347 357 0 360 1 4 11 35 40 21 13 12 9 171 100 83 249 264 228 140 97 84 91 83 95 122 142 115 95 39 303 312 315 315 339 7 45 73 65 40 56 68 75 90 86 265 235 153 95 337 69 8 319 336 11 23 16 9 47 74 70 103 124 166 204 202 256 278 278 290 309 320 134 107 76 279 244 179 153 151 150 150
339 337 341 343 341 342 353 359 359 360 4 9 20 28 22 14 8 6 38 109 84 11 278 246 106 88 107 139 138 132 135 130 106 97 79 313 316 315 324 350 0 12 58 81 64 57 75 72 60 97 171 270 72 107 230 118 90 297 313 10 20 7 6 53 98 100 84 109 151 239 255 272 287 291 296 310 346 61 100 198 239 210 145 145 144 145 150
337 335 338 340 339 337 348 358 359 357 1 7 359 350 15 12 4 5 21 88 96 53 299 322 80 99 178 123 115 95 93 102 104 104 88 5 280 285 347 18 358 351 36 73 79 83 86 51 341 126 124 315 341 113 137 114 162 245 338 27 22 20 8 21 72 72 52 105 118 335 277 247 295 302 299 311 18 154 202 229 238 173 140 136 132 138 145
335 333 333 338 339 336 342 354 358 356 358 4 356 331 350 1 357 0 8 83 100 2 294 322 22 310 274 109 117 121 87 61 71 111 127 181 246 47 40 10 350 18 41 60 62 68 100 107 280 120 115 280 275 119 101 357 267 219 173 72 21 117 99 345 282 182 116 60 57 54 203 237 334 335 331 17 23 248 231 260 310 227 154 131 125 140 143
328 327 327 336 339 335 337 350 356 354 355 2 356 335 322 349 351 349 337 179 118 90 301 322 326 293 285 285 242 170 135 132 149 145 148 184 356 78 124 203 223 71 81 108 104 96 144 156 211 317 103 131 352 121 122 38 335 278 192 150 133 134 131 242 253 193 112 69 67 201 222 260 321 346 342 330 316 278 226 153 340 272 167 127 125 133 137
316 322 327 334 336 330 330 343 352 352 352 356 356 345 328 337 348 350 339 220 173 209 273 308 312 305 318 346 330 317 160 156 145 141 138 118 9 71 141 158 169 171 170 131 111 123 147 133 138 110 92 51 33 90 131 109 47 292 303 95 95 243 198 168 188 195 146 176 219 235 256 283 311 321 258 281 311 306 250 173 155 186 245 139 137 138 139
304 315 324 330 331 325 319 333 347 349 348 350 354 353 343 343 353 1 15 189 263 262 276 306 324 338 16 36 35 35 73 65 41 84 129 112 65 355 90 119 138 159 129 123 146 161 151 140 136 117 110 101 92 92 79 94 173 273 290 105 261 260 197 147 156 276 212 174 240 301 338 339 340 342 318 325 345 344 336 359 117 153 146 112 128 142 149
292 304 317 321 324 321 312 322 340 344 345 347 351 351 349 352 357 5 34 79 36 36 314 343 16 6 308 324 23 50 60 53 30 359 1 122 127 85 311 212 157 88 38 201 167 133 116 132 125 96 101 154 118 101 88 68 170 202 133 351 308 286 136 108 47 10 59 74 323 344 8 4 356 356 357 0 359 352 357 10 355 330 104 105 108 119 130
282 296 312 316 321 319 309 311 329 339 343 345 345 349 356 359 1 10 35 51 58 115 107 358 341 353 349 351 44 47 38 27 39 29 350 312 163 147 154 180 136 113 151 185 123 82 80 94 99 95 120 157 129 118 145 137 152 159 110 16 302 284 95 84 48 44 83 253 288 303 304 13 22 19 7 357 351 348 3 19 14 9 48 95 110 115 115
277 292 310 315 319 316 305 304 319 330 338 340 339 352 18 17 12 21 43 57 82 102 96 162 277 359 37 49 19 0 48 92 75 85 76 75 119 132 134 127 85 83 105 98 74 88 102 93 89 106 133 136 110 141 180 177 124 99 90 249 252 311 25 81 93 36 352 282 302 312 300 349 15 18 12 358 350 1 18 24 27 29 30 44 87 115 133
274 288 306 312 315 311 302 300 310 321 335 337 332 341 51 38 30 33 38 42 63 87 86 172 269 334 24 33 11 7 137 150 115 109 107 105 118 126 125 116 89 67 68 57 51 80 85 70 85 135 175 175 95 102 160 186 111 97 25 284 289 36 33 130 97 53 348 262 265 280 207 256 330 350 360 356 2 34 41 31 28 32 27 20 36 59 115
270 285 303 308 308 304 299 295 298 314 332 335 332 100 119 64 35 32 23 23 49 132 153 185 282 319 351 14 14 27 112 161 146 127 113 104 117 122 113 104 92 73 73 73 69 74 72 79 122 154 179 175 97 65 30 35 61 74 294 299 330 73 113 144 118 121 239 250 239 194 141 172 248 284 329 354 33 52 48 36 32 31 29 33 39 34 31
268 284 300 305 305 300 296 292 295 313 333 339 150 133 129 116 23 22 11 12 28 96 120 102 343 351 316 335 7 30 70 117 129 122 102 88 93 93 84 80 83 94 101 98 97 98 99 134 165 174 270 154 135 25 356 74 75 247 256 284 304 287 207 146 138 151 232 258 213 183 161 197 220 232 279 338 66 75 61 45 44 39 35 40 43 35 27
268 284 294 298 301 297 289 284 293 316 334 201 166 108 27 334 306 330 355 7 6 43 95 98 80 6 317 310 3 25 49 79 94 90 81 76 71 63 64 76 79 72 80 81 89 116 136 340 30 316 314 42 111 111 90 111 158 256 270 302 319 320 321 260 188 176 289 244 187 179 203 231 228 224 251 283 34 80 92 83 69 52 41 41 42 37 31
269 286 292 293 294 289 278 279 299 320 325 192 167 83 48 199 231 247 311 3 359 52 95 92 103 337 343 350 17 16 27 57 75 74 66 63 56 47 54 65 54 39 62 74 68 109 138 77 38 11 340 33 83 115 128 118 167 265 285 324 313 313 322 306 288 294 295 258 156 105 264 263 295 335 290 289 328 9 76 96 71 44 25 20 24 28 24
272 289 293 292 287 275 266 285 306 319 273 194 197 211 217 215 232 233 232 358 13 103 103 83 70 40 358 321 342 7 17 38 56 54 42 32 35 37 41 48 49 44 70 91 88 62 125 139 96 65 12 44 77 98 106 115 174 236 261 313 309 297 295 297 304 335 355 9 47 10 336 328 351 349 306 287 289 290 274 273 290 302 317 330 335 337 339
274 290 294 286 274 263 278 300 307 307 179 188 202 217 224 260 322 205 157 72 61 97 107 99 102 118 231 250 325 359 16 28 33 34 21 2 8 34 29 28 37 34 37 64 113 111 79 121 104 70 351 21 79 89 96 187 212 234 262 288 287 281 284 293 322 43 27 16 42 159 270 280 283 291 300 308 316 312 295 284 284 289 299 315 321 318 313
279 292 288 271 259 270 298 302 210 159 153 148 147 136 105 75 87 120 122 103 81 64 56 84 111 133 319 353 329 335 20 72 71 46 25 351 3 56 40 2 13 35 34 44 85 87 48 64 112 113 340 359 57 79 258 253 249 258 281 282 273 283 313 340 23 43 6 346 7 177 244 262 282 306 324 337 343 341 337 329 316 315 325 324 302 285 285
279 277 256 249 261 278 247 142 144 150 138 126 135 126 87 69 83 90 84 70 72 62 14 54 105 127 70 51 307 294 23 75 72 66 90 3 5 52 94 31 19 34 28 29 59 75 66 123 142 142 352 5 39 188 235 238 240 248 269 279 278 293 353 345 351 350 338 351 36 21 354 3 22 7 351 343 343 347 352 354 349 342 324 293 283 279 272
257 231 223 232 203 158 147 141 149 158 120 117 135 122 80 78 82 75 77 75 73 98 170 67 77 135 141 134 225 267 44 74 17 352 38 40 9 38 76 76 62 25 1 38 54 46 5 57 111 87 15 29 208 228 220 200 198 210 226 246 251 233 237 274 268 300 334 4 37 28 20 40 51 18 348 342 345 359 14 12 6 358 319 293 289 290 291
214 198 201 184 151 126 90 100 137 134 118 122 131 118 96 99 84 56 62 59 43 47 106 113 136 192 164 152 219 259 69 94 25 8 26 70 324 8 47 69 90 224 14 34 57 196 347 45 84 111 207 220 220 237 231 199 191 195 198 220 239 239 243 249 203 82 8 358 4 8 14 21 4 336 340 341 339 355 8 356 338 312 286 288 292 290 294
182 176 172 157 136 90 17 90 118 117 123 133 129 106 72 69 58 23 4 14 7 3 50 96 179 220 113 101 214 246 125 115 69 36 46 179 91 4 38 72 114 178 35 350 250 194 70 35 56 137 240 261 263 252 237 214 202 199 185 188 214 213 199 200 141 90 37 352 336 329 340 343 325 305 297 299 307 321 324 306 295 281 266 268 280 289 292
169 162 148 139 125 90 120 133 126 123 132 145 131 102 11 26 48 12 328 352 3 340 16 94 203 193 124 114 250 264 164 96 72 47 233 197 172 350 77 85 175 105 70 299 260 125 64 350 355 356 280 283 279 247 220 195 195 212 206 202 214 212 196 201 202 183 195 250 261 260 265 275 276 269 265 272 284 290 285 282 281 277 272 276 288 295 292
159 154 133 127 118 110 123 132 132 127 120 73 53 62 37 44 87 179 242 28 18 285 235 183 203 193 138 131 172 239 205 111 125 156 169 175 196 149 104 104 208 98 79 264 257 84 90 201 346 358 268 252 254 246 203 170 184 208 208 209 227 231 226 244 257 259 260 266 272 271 266 258 253 254 260 269 278 284 281 277 272 265 262 273 288 288 281
161 163 147 135 126 121 123 128 124 103 80 57 34 29 56 215 252 194 92 70 309 262 231 135 127 187 183 137 143 186 226 171 147 138 119 94 326 95 94 249 259 90 127 250 247 85 87 131 253 266 246 240 250 247 184 163 181 204 210 241 266 274 280 281 286 288 281 273 275 279 277 272 267 265 264 265 264 262 263 268 268 262 254 256 267 274 279
155 143 127 121 119 118 115 103 63 34 69 82 51 5 269 210 258 290 120 168 221 238 218 141 152 182 191 162 146 169 199 173 115 85 90 114 239 111 104 72 13 71 225 244 270 69 67 330 270 259 252 250 248 218 175 166 180 192 199 219 224 270 284 282 292 301 297 281 275 280 282 278 272 271 271 270 266 262 262 262 260 256 254 256 258 261 268
138 134 125 113 103 93 73 42 31 52 62 62 71 49 304 316 321 223 263 277 251 159 164 182 164 144 140 132 115 80 150 156 116 84 94 139 188 75 77 59 32 204 223 237 66 77 149 218 231 243 249 248 223 201 187 180 177 175 191 200 166 147 299 286 286 294 296 291 284 284 284 280 277 277 279 276 269 264 264 262 256 253 254 257 257 257 258
132 121 105 86 56 51 50 2 18 106 112 285 147 152 203 265 246 182 212 254 243 203 189 169 140 132 150 162 118 97 133 133 87 81 94 143 72 81 94 211 230 220 211 67 79 150 231 236 233 236 240 228 208 198 186 172 158 143 122 3 69 339 306 296 288 287 291 292 288 286 285 283 282 283 283 279 272 265 262 262 261 259 257 256 257 258 257
151 24 44 43 6 4 106 340 339 75 179 212 193 170 181 198 196 199 212 210 173 149 156 148 130 127 147 187 130 122 150 85 64 102 163 90 63 97 206 218 213 150 86 101 196 251 264 257 243 223 203 198 192 176 162 159 155 143 128 131 256 248 258 272 280 282 284 288 289 287 284 281 280 279 279 279 277 272 266 263 264 265 263 259 256 255 256
168 79 94 98 328 289 147 143 322 280 200 207 195 181 186 191 193 209 225 202 135 138 156 154 133 122 130 174 172 105 111 98 102 184 132 101 118 230 222 177 123 84 77 228 239 241 243 243 233 205 188 182 172 159 155 155 154 150 151 188 239 250 268 290 296 296 297 298 296 291 285 280 278 276 276 277 279 277 271 268 267 265 260 256 255 255 257
40 41 87 106 147 316 176 205 222 213 204 206 202 197 201 205 214 232 236 203 163 151 136 114 110 119 136 148 144 155 69 90 117 199 108 108 156 264 1 68 179 196 176 202 230 238 241 244 230 193 178 168 157 155 158 157 162 169 173 211 282 307 323 323 315 312 311 309 305 299 293 288 284 280 276 275 276 277 276 274 272 268 260 255 256 259 256
126 82 81 137 179 199 207 223 247 266 247 230 230 226 205 181 230 259 253 210 149 139 129 116 114 121 59 46 113 147 269 66 134 209 208 113 122 346 15 18 248 236 190 196 217 228 236 234 205 171 163 158 152 152 158 165 168 164 145 3 316 320 323 319 315 316 314 311 308 305 302 299 294 290 285 278 274 277 278 277 275 271 266 261 258 255 250
102 105 102 141 182 214 221 212 308 313 293 273 264 253 169 160 230 256 244 155 126 143 151 139 129 141 190 329 71 108 205 230 187 194 55 96 148 201 168 185 237 255 239 219 218 224 229 213 163 144 149 158 154 152 161 170 167 154 132 309 307 315 317 312 312 315 315 314 313 310 307 304 300 294 289 280 275 278 283 283 277 272 268 263 257 252 247
59 108 170 167 192 248 272 29 67 306 305 323 340 328 164 176 260 266 225 156 135 112 96 81 78 98 113 52 51 43 260 238 167 129 148 195 191 183 168 200 223 231 229 225 222 215 200 166 143 141 154 161 155 155 162 162 154 141 349 321 318 319 314 308 312 318 322 323 321 316 310 306 300 296 294 290 284 284 287 287 283 278 273 268 260 251 246
14 2 245 221 196 207 213 144 158 242 274 294 285 254 195 182 243 247 195 141 116 96 104 150 111 70 71 83 138 205 243 222 131 134 202 216 175 150 178 223 229 224 225 236 232 198 169 154 146 149 156 159 159 166 167 157 149 144 333 329 324 322 321 319 322 326 329 330 330 325 318 313 312 312 310 303 295 290 290 291 291 286 279 274 267 255 248
98 263 276 272 227 184 171 165 216 237 241 241 237 222 187 200 237 231 150 119 123 148 178 171 103 88 117 202 197 170 179 178 126 164 220 228 193 173 191 214 224 216 210 219 208 161 154 158 154 153 156 160 165 169 167 159 158 172 305 329 323 320 321 325 330 335 337 338 339 337 331 328 331 331 321 308 303 304 299 298 301 299 288 280 272 257 245